MDT,Max TemperatureF,Mean TemperatureF,Min TemperatureF,Max Dew PointF,MeanDew PointF,Min DewpointF,Max Humidity, Mean Humidity, Min Humidity, Max Sea Level PressureIn, Mean Sea Level PressureIn, Min Sea Level PressureIn, Max VisibilityMiles, Mean VisibilityMiles, Min VisibilityMiles, Max Wind SpeedMPH, Mean Wind SpeedMPH, Max Gust SpeedMPH,PrecipitationIn, CloudCover, Events, WindDirDegrees
2011-10-1,92,66,39,41,36,29,85,48,10,30.08,30.00,29.96,10,10,10,16,4,22,0.00,0,,150
2011-10-2,92,68,44,44,39,36,76,45,14,30.02,29.94,29.87,10,10,10,16,3,21,0.00,0,,208
2011-10-3,90,70,50,47,42,39,63,41,18,30.06,29.97,29.91,10,10,10,20,6,29,T,0,,250
2011-10-4,90,70,49,44,37,27,77,46,14,29.95,29.82,29.68,10,10,2,29,15,43,0.00,0,,171
2011-10-5,81,71,61,46,40,31,48,36,24,29.70,29.60,29.48,10,10,10,40,24,48,0.00,0,,171
2011-10-6,81,61,40,53,47,41,96,62,28,29.59,29.42,29.26,10,10,10,43,19,58,T,2,,180
2011-10-7,70,55,40,39,26,19,89,54,18,29.94,29.72,29.56,10,10,10,47,21,59,0.00,0,,233
2011-10-8,48,45,42,46,44,35,100,85,70,30.21,30.08,29.96,10,5,2,24,13,31,1.21,7,Rain,18
2011-10-9,46,43,40,45,43,39,100,93,86,30.24,30.14,30.03,10,5,1,16,7,22,0.34,8,Rain,4
2011-10-10,67,52,37,40,37,30,100,63,26,30.01,29.89,29.81,10,10,10,21,8,28,0.00,1,,240
2011-10-11,72,54,36,45,39,35,92,60,28,29.80,29.74,29.65,10,10,10,22,7,28,T,2,,256
2011-10-12,64,49,34,44,34,27,86,56,25,30.06,29.98,29.81,10,10,10,28,12,38,T,3,Rain,288
2011-10-13,63,46,29,36,31,27,92,60,27,30.07,30.04,29.96,10,10,10,18,5,25,0.00,0,,255
2011-10-14,59,46,32,39,34,27,96,63,30,30.17,30.10,30.05,10,10,10,12,2,16,0.00,3,,232
2011-10-15,83,57,30,44,35,29,92,54,15,30.04,29.93,29.73,10,9,3,30,7,39,0.00,0,,341
2011-10-16,60,50,39,39,36,34,92,65,37,30.22,30.10,29.94,10,10,10,12,4,15,T,3,,182
2011-10-17,53,42,31,38,35,28,92,76,59,30.32,30.16,29.89,10,10,6,23,9,77,0.10,5,Rain,341
2011-10-18,61,45,29,32,28,24,92,59,26,30.41,30.34,30.27,10,10,10,24,8,31,0.00,3,,295
2011-10-19,59,43,26,31,27,23,92,61,30,30.31,30.17,30.03,10,10,10,10,4,14,0.00,0,,216
2011-10-20,69,52,34,34,31,28,96,60,24,30.07,30.02,29.93,10,10,10,17,6,23,0.00,0,,252
2011-10-21,66,48,30,39,35,30,100,68,36,30.22,30.14,30.08,10,10,10,10,4,21,0.00,0,,248
2011-10-22,68,52,35,42,37,34,100,67,34,30.18,30.11,30.02,10,10,9,17,5,25,0.00,2,,259
2011-10-23,71,52,33,35,33,29,89,57,24,30.10,30.04,29.98,10,10,10,16,7,22,0.00,1,,291
2011-10-24,62,46,29,41,35,29,92,70,47,30.08,29.94,29.81,10,10,2,9,2,10,0.00,0,,296
2011-10-25,49,44,38,36,33,27,85,70,55,30.30,30.14,29.92,10,10,8,16,8,20,T,6,Rain,1
2011-10-26,46,35,23,29,23,18,92,63,33,30.37,30.30,30.24,10,10,10,10,4,41,0.00,3,,286
2011-10-27,55,37,19,25,19,14,92,56,20,30.26,30.19,30.09,10,10,9,20,7,25,0.00,1,,259
2011-10-28,56,37,18,23,20,15,91,58,24,30.41,30.27,30.11,10,10,5,15,5,21,0.00,1,,241
2011-10-29,65,44,23,37,24,16,81,49,16,30.12,29.97,29.84,10,10,8,28,9,35,T,3,Rain,272
2011-10-30,58,42,25,30,25,21,85,55,24,30.23,30.15,30.09,10,10,10,23,9,30,0.00,1,,278
2011-10-31,73,49,24,37,29,20,81,50,19,30.08,29.92,29.79,10,10,10,28,8,35,0.00,1,,250